FW6210 Weather Reports


time (UTC)temp
C
wind
direction
speed
KPH
gust
KPH
rain 1hr
cm
rain 24hr
cm
rain mn
cm
humidity
%
barometer
mb
20260504190036 13 225 3.2 9.7 0.00 0.00 0.00 46 1004.9
20260504184534 13 316 3.2 11.3 0.00 0.00 0.00 45 1005.4
20260504183025 13 63 3.2 12.9 0.00 0.00 0.00 44 1005.6
20260504181523 12 184 3.2 12.9 0.00 0.00 0.00 50 1005.8
20260504180018 12 71 3.2 8.0 0.00 0.00 0.00 49 1006.0
20260504174514 11 324 4.8 12.9 0.00 0.00 0.00 53 1006.3
20260504173012 11 162 1.6 8.0 0.00 0.00 0.00 53 1006.6
20260504171510 11 84 1.6 6.4 0.00 0.00 0.00 53 1006.8
20260504120125 0 115 0.0 3.2 0.00 0.00 0.00 76 1008.3
20260504081505 -1 229 0.0 0.0 0.00 0.00 0.00 72 1008.9
20260504044543 3 226 0.0 0.0 0.00 0.00 0.00 58 1009.9
20260504043046 3 226 0.0 3.2 0.00 0.00 0.00 57 1010.1
20260504041542 4 226 1.6 3.2 0.00 0.00 0.00 56 1010.1
20260504040042 5 226 0.0 3.2 0.00 0.00 0.00 54 1010.2
20260504034541 5 226 1.6 4.8 0.00 0.00 0.00 53 1010.3
20260504033040 6 226 0.0 3.2 0.00 0.00 0.00 48 1010.3
20260504031541 6 192 3.2 6.4 0.00 0.00 0.00 43 1010.1
20260504030040 7 194 1.6 8.0 0.00 0.00 0.00 37 1010.0
20260504024543 7 178 1.6 4.8 0.00 0.00 0.00 40 1009.9
20260504023040 8 178 1.6 6.4 0.00 0.00 0.00 35 1009.8
20260504021538 8 146 1.6 8.0 0.00 0.00 0.00 41 1009.7
20260504020104 9 155 1.6 4.8 0.00 0.00 0.00 40 1009.8
20260504014553 11 155 1.6 4.8 0.00 0.00 0.00 32 1009.7
20260504013045 12 80 0.0 6.4 0.00 0.00 0.00 26 1009.7
20260504011537 13 355 1.6 8.0 0.00 0.00 0.00 26 1009.6
20260504010042 13 28 3.2 8.0 0.00 0.00 0.00 25 1009.7
20260504004546 13 12 1.6 6.4 0.00 0.00 0.00 24 1009.7
20260504003033 13 309 1.6 6.4 0.00 0.00 0.00 27 1009.8
20260504001543 13 331 3.2 11.3 0.00 0.00 0.00 26 1010.0
20260504000032 14 22 3.2 12.9 0.00 0.00 0.00 26 1010.0
20260503234532 14 230 3.2 8.0 0.00 0.00 0.00 27 1009.9
20260503233035 15 327 1.6 9.7 0.00 0.00 0.00 25 1010.1
20260503231529 15 222 3.2 12.9 0.00 0.00 0.00 25 1010.1
20260503230028 15 5 4.8 16.1 0.00 0.00 0.00 24 1010.3
20260503224528 15 101 3.2 12.9 0.00 0.00 0.00 24 1010.4
20260503223026 14 9 1.6 4.8 0.00 0.00 0.00 27 1010.6
20260503221524 14 251 3.2 11.3 0.00 0.00 0.00 28 1010.9
20260503220023 14 9 3.2 8.0 0.00 0.00 0.00 26 1011.0
20260503214522 14 9 1.6 4.8 0.00 0.00 0.00 27 1011.3
20260503213020 15 130 1.6 8.0 0.00 0.00 0.00 26 1011.4
20260503211518 16 30 3.2 14.5 0.00 0.00 0.00 23 1011.6
20260503210015 15 111 4.8 12.9 0.00 0.00 0.00 24 1011.9
20260503204513 15 87 1.6 9.7 0.00 0.00 0.00 26 1012.0
20260503203032 15 247 3.2 12.9 0.00 0.00 0.00 26 1012.1
20260503201511 15 80 6.4 29.0 0.00 0.00 0.00 26 1012.1
20260503200012 15 259 3.2 17.7 0.00 0.00 0.00 28 1012.2
20260503194514 15 338 4.8 16.1 0.00 0.00 0.00 28 1012.4
20260503193007 15 105 4.8 14.5 0.00 0.00 0.00 28 1012.4
20260503191504 15 115 3.2 9.7 0.00 0.00 0.00 29 1012.4